Voltar ao catálogo

COSMOS 1365

AtivoMilitarLEO
NORAD 13175·PAYLOAD·🇷🇺 Russia

Lançado May 14, 1982 de Baikonur Cosmodrome

Loading…

Próximas Passagens (próximas 24 horas)

TLE

AtualizadoSource: Space-Track

Época: Sep 14, 2026, 11:45 UTC

1 13175U 82043A   26257.49013649 -.00000069  00000-0  16738-4 0  9997
2 13175  65.0707 332.4172 0054768 358.2754  13.8224 13.89786685252370

Acompanhe COSMOS 1365 em tempo real com AllMySat

Download on the App Store